[[{"header":{"parameterUnit":"m.s-1","parameterCategory":1,"la1":30.2991,"la2":30.254,"lo1":-89.0895,"lo2":-89.0444,"dy":0.0017,"dx":0.0017,"nx":28,"ny":28,"refTime":"2023-10-26T03:00:00:Z","depth":0,"parameterNumber":2,"parameterNumberName":"U-component_of_WINDS"},"data":[0,0,0,0,0,0,0,0,0,0,0,0,0,0,0,0,0,0,0,0,0,0,0,0,0,0,0,0,0,0,0,0,0,0,0,0,0,0,0,0,0,0,0,0,0,0,0,0,0,0,0,0,0,0,0,0,0,0,-6.1993,-6.1992,0,-6.1962,-6.1962,-6.1962,-6.1816,-6.1813,-6.1809,-6.1806,-6.1775,-6.1777,-6.178,0,0,0,0,0,0,0,0,0,0,0,0,0,-6.1928,-6.1929,-6.1993,-6.1992,-6.1992,-6.1962,-6.1962,-6.1961,-6.1817,-6.1812,-6.1808,-6.1804,-6.1774,-6.1777,-6.178,0,0,0,0,0,0,0,0,0,0,0,0,0,-6.1932,-6.193,-6.1993,-6.1916,-6.1909,-6.1962,-6.1962,-6.1961,-6.1817,-6.1812,-6.1807,-6.1802,-6.1773,-6.1777,-6.178,-6.1905,0,0,-6.1791,-6.1793,0,0,0,0,0,0,0,0,-6.1932,-6.1935,-6.1928,-6.1921,-6.1914,-6.1888,-6.1927,-6.1943,-6.1819,-6.1852,-6.1806,-6.18,-6.1817,-6.1816,-6.1822,-6.1904,-6.1902,-6.1791,-6.1794,-6.1795,-6.1796,0,0,0,0,0,0,0,-6.1932,-6.1935,-6.1981,-6.1928,-6.1919,-6.1884,-6.1879,-6.193,-6.1864,-6.1849,-6.1838,-6.1837,-6.1812,-6.1819,-6.182,-6.1902,-6.1791,-6.1794,-6.1797,-6.1798,-6.2085,-6.2091,0,0,0,0,0,0,-6.1943,-6.1936,-6.1981,-6.198,-6.191,-6.1889,-6.1884,-6.1901,-6.1863,-6.1852,-6.1841,-6.183,-6.1815,-6.1816,-6.1818,-6.1961,-6.1795,-6.1798,-6.18,-6.208,-6.2087,-6.2093,0,0,0,0,0,0,-6.1942,-6.1948,-6.1983,-6.1955,-6.1957,-6.1896,-6.1917,-6.1903,-6.191,-6.1857,-6.1844,-6.186,-6.1811,-6.1813,-6.1885,-6.1958,-6.18,-6.1803,-6.2074,-6.2082,-6.209,-6.2248,0,0,0,0,0,0,-6.194,-6.1949,-6.1994,-6.1957,-6.1959,-6.2049,-6.1921,-6.1906,-6.1916,-6.1902,-6.1871,-6.1861,-6.1807,-6.188,-6.1888,-6.196,-6.1806,-6.2067,-6.2077,-6.2087,-6.2236,-6.2261,-6.2282,0,0,0,0,0,-6.1939,-6.204,-6.1997,-6.2004,-6.2015,-6.2054,-6.2055,-6.199,-6.1923,-6.1969,-6.1935,-6.1862,-6.195,-6.1889,-6.1897,-6.1971,-6.2062,-6.2074,-6.2086,-6.2226,-6.2256,-6.2282,0,0,0,0,0,0,-6.2086,-6.2034,-6.1986,-6.2078,-6.2072,-6.2029,-6.2084,-6.2024,-6.2036,-6.2022,-6.1942,-6.1937,-6.202,-6.2003,-6.1936,-6.209,-6.1993,-6.2008,-6.2097,-6.2125,-6.2148,-6.2148,-6.1809,0,0,0,0,0,-6.213,-6.2166,-6.2118,-6.2204,-6.2204,-6.2146,-6.216,-6.2112,-6.2101,-6.2098,-6.2069,-6.2062,-6.2088,-6.2106,-6.2127,-6.2235,-6.2226,-6.229,-6.2313,-6.2332,-6.2344,-6.24,-6.2428,-6.2133,-6.2133,-6.2133,0,0,-6.222,-6.2196,-6.2223,-6.2234,-6.2222,-6.2261,-6.2144,-6.219,-6.2217,-6.2104,-6.2169,-6.2149,-6.2136,-6.2227,-6.2265,-6.2215,-6.2425,-6.2348,-6.2364,-6.2365,-6.2416,-6.2444,-6.2468,-6.2142,-6.214,-6.2139,0,0,-6.2402,-6.2389,-6.2458,-6.2451,-6.2437,-6.2398,-6.2416,-6.2383,-6.2365,-6.243,-6.2346,-6.2379,-6.2425,-6.242,-6.2423,-6.2609,-6.2542,-6.2619,-6.2737,-6.2792,-6.2815,-6.2835,-6.29,-6.2924,-6.2632,-6.2632,-6.2633,0,-6.2515,-6.2569,-6.2502,-6.2554,-6.2561,-6.2463,-6.2533,-6.253,-6.2523,-6.2531,-6.2476,-6.2533,-6.2518,-6.2605,-6.2651,-6.2658,-6.2674,-6.2619,-6.2817,-6.2837,-6.2855,-6.2915,-6.294,-6.2641,-6.264,-6.2639,-6.2639,0,-6.2708,-6.2748,-6.2807,-6.2804,-6.2818,-6.288,-6.2822,-6.2846,-6.2798,-6.2766,-6.2833,-6.2813,-6.2827,-6.2846,-6.2799,-6.2927,-6.2896,-6.2832,-6.2732,-6.2893,-6.2948,-6.2971,-6.2655,-6.2651,-6.2649,-6.2646,0,0,-6.2977,-6.2939,-6.2961,-6.2959,-6.2939,-6.2968,-6.3027,-6.3042,-6.3063,-6.3064,-6.311,-6.3154,-6.3093,-6.3098,-6.305,-6.31,-6.3247,-6.3028,-6.3026,-6.3067,-6.3385,-6.3432,-6.346,-6.3205,-6.3209,-6.3212,-6.3386,0,-6.3149,-6.3244,-6.3188,-6.3292,-6.3328,-6.3238,-6.3288,-6.3282,-6.3255,-6.3282,-6.3252,-6.3284,-6.3203,-6.3205,-6.325,-6.3219,-6.3309,-6.3207,-6.3245,-6.3247,-6.3247,-6.3489,-6.3538,-6.3702,-6.3407,-6.3411,-6.3413,0,-6.3361,-6.3372,-6.348,-6.3454,-6.3467,-6.3513,-6.3523,-6.3551,-6.3543,-6.352,-6.3527,-6.3469,-6.3525,-6.3431,-6.3506,-6.3438,-6.3452,-6.344,-6.3445,-6.3442,-6.3337,-6.349,-6.3753,-6.3777,-6.3447,-6.3445,-6.3442,0,-6.3543,-6.3585,-6.3655,-6.3657,-6.3629,-6.3664,-6.3654,-6.3641,-6.3654,-6.3665,-6.3673,-6.369,-6.3698,-6.3713,-6.3661,-6.3598,-6.3744,-6.3646,-6.3725,-6.3727,-6.3756,-6.3754,-6.4022,-6.3772,-6.3771,-6.3771,-6.377,0,-6.3739,-6.3808,-6.3736,-6.3779,-6.3855,-6.3791,-6.3867,-6.3848,-6.3838,-6.3875,-6.3801,-6.3838,-6.3769,-6.3799,-6.376,-6.3828,-6.3833,-6.3816,-6.3803,-6.382,-6.3822,-6.3824,-6.381,-6.3777,-6.3776,-6.3775,-6.3773,0,-6.3952,-6.3908,-6.3977,-6.3947,-6.3942,-6.3998,-6.3972,-6.4011,-6.3981,-6.403,-6.4038,-6.399,-6.4023,-6.3974,-6.4001,-6.3975,-6.4068,-6.4041,-6.4071,-6.4061,-6.4142,-6.4134,-6.4418,-6.4451,-6.4183,-6.4186,-6.4188,0,-6.4077,-6.4128,-6.4105,-6.4125,-6.412,-6.4154,-6.4168,-6.4109,-6.4126,-6.4123,-6.4163,-6.4189,-6.4206,-6.4263,-6.4231,-6.4252,-6.4222,-6.432,-6.4224,-6.424,-6.422,-6.4216,-6.422,-6.4338,-6.4341,-6.4344,-6.4346,0,-6.4304,-6.4281,-6.4304,-6.4321,-6.4341,-6.4351,-6.4356,-6.4377,-6.4315,-6.4339,-6.4372,-6.4386,-6.4415,-6.4442,-6.4455,-6.4445,-6.4386,-6.4378,-6.4397,-6.4412,-6.4426,-6.4417,-6.412,-6.437,-6.4368,-6.4366,-6.4365,-6.4364,-6.4475,-6.4516,-6.4507,-6.4536,-6.4534,-6.4541,-6.4576,-6.4552,-6.4579,-6.4597,-6.4562,-6.4604,-6.4597,-6.4609,-6.4606,-6.4638,-6.4595,-6.4623,-6.4629,-6.4636,-6.4648,-6.4425,-6.4641,-6.464,-6.4639,-6.4639,-6.4638,0,-6.4695,-6.4686,-6.4714,-6.4724,-6.4747,-6.4692,-6.4696,-6.4719,-6.4757,-6.4756,-6.4776,-6.4814,-6.4841,-6.4814,-6.4835,-6.4867,-6.484,-6.4874,-6.4869,-6.4868,-6.4686,-6.4666,-6.4895,-6.4895,-6.4895,-6.4895,-6.4895,-6.4895,-6.4812,-6.4879,-6.4856,-6.4922,-6.4912,-6.4953,-6.496,-6.4966,-6.4965,-6.5012,-6.5034,-6.5017,-6.5005,-6.5026,-6.5049,-6.504,-6.505,-6.5094,-6.5076,-6.4906,-6.488,-6.4856,-6.4837,-6.5098,-6.5098,-6.5253,-6.5255,-6.5256]},{"header":{"parameterUnit":"m.s-1","parameterCategory":1,"la1":30.2991,"la2":30.254,"lo1":-89.0895,"lo2":-89.0444,"dy":0.0017,"dx":0.0017,"nx":28,"ny":28,"refTime":"2023-10-26T03:00:00:Z","depth":0,"parameterNumber":3,"parameterNumberName":"V-component_of_WINDS"},"data":[0,0,0,0,0,0,0,0,0,0,0,0,0,0,0,0,0,0,0,0,0,0,0,0,0,0,0,0,0,0,0,0,0,0,0,0,0,0,0,0,0,0,0,0,0,0,0,0,0,0,0,0,0,0,0,0,0,0,1.3026,1.3026,0,1.3026,1.3026,1.3026,1.304,1.3041,1.3041,1.3041,1.3035,1.3034,1.3034,0,0,0,0,0,0,0,0,0,0,0,0,0,1.3035,1.3035,1.3026,1.3026,1.3026,1.3026,1.3026,1.3026,1.304,1.3041,1.3041,1.3042,1.3035,1.3034,1.3034,0,0,0,0,0,0,0,0,0,0,0,0,0,1.3032,1.3035,1.3026,1.3033,1.3034,1.3026,1.3026,1.3026,1.304,1.3041,1.3041,1.3042,1.3035,1.3034,1.3034,1.3017,0,0,1.3031,1.3031,0,0,0,0,0,0,0,0,1.3032,1.3032,1.3032,1.3033,1.3034,1.3034,1.3027,1.3023,1.304,1.3038,1.3041,1.3042,1.3034,1.3033,1.3031,1.3016,1.3016,1.3031,1.3031,1.303,1.303,0,0,0,0,0,0,0,1.3033,1.3032,1.3026,1.3032,1.3033,1.3035,1.3036,1.3026,1.3032,1.3038,1.3039,1.3039,1.3034,1.3032,1.3031,1.3016,1.3031,1.303,1.303,1.303,1.2989,1.2989,0,0,0,0,0,0,1.3033,1.3032,1.3026,1.3026,1.3035,1.3035,1.3035,1.3033,1.3032,1.3033,1.3039,1.304,1.3033,1.3032,1.3031,1.3013,1.303,1.3029,1.3029,1.299,1.2989,1.2988,0,0,0,0,0,0,1.3033,1.3032,1.3026,1.3029,1.3029,1.3034,1.3032,1.3033,1.3031,1.3033,1.3033,1.3036,1.3034,1.3032,1.3021,1.3012,1.3029,1.3028,1.299,1.299,1.2989,1.2974,0,0,0,0,0,0,1.3033,1.3032,1.3026,1.3029,1.3029,1.3017,1.3031,1.3032,1.303,1.3032,1.303,1.3031,1.3034,1.3022,1.302,1.3012,1.3028,1.2991,1.299,1.2989,1.2975,1.2973,1.2971,0,0,0,0,0,1.3033,1.302,1.3026,1.3025,1.3022,1.3016,1.3016,1.3022,1.3029,1.3023,1.3025,1.3031,1.3014,1.3021,1.3019,1.301,1.2992,1.299,1.2989,1.2976,1.2973,1.2971,0,0,0,0,0,0,1.3012,1.302,1.3027,1.3014,1.3015,1.3019,1.3011,1.3018,1.3014,1.3016,1.3022,1.3021,1.3009,1.3008,1.3016,1.2995,1.3004,1.3002,1.2995,1.2992,1.299,1.299,1.3027,0,0,0,0,0,1.3007,1.3004,1.301,1.2998,1.2999,1.3005,1.3003,1.3008,1.3008,1.3007,1.3008,1.3006,1.3001,1.2996,1.2991,1.2976,1.2976,1.2969,1.2967,1.2965,1.2963,1.2956,1.2953,1.2984,1.2984,1.2984,0,0,1.2994,1.2998,1.2995,1.2995,1.2996,1.2991,1.3005,1.2998,1.2995,1.3005,1.2996,1.2997,1.2995,1.2982,1.2976,1.2981,1.2955,1.2963,1.2962,1.296,1.2954,1.2951,1.2949,1.2983,1.2983,1.2984,0,0,1.2969,1.2972,1.2964,1.2966,1.2968,1.2973,1.2971,1.2975,1.2977,1.2968,1.2977,1.2972,1.2962,1.2961,1.2959,1.2938,1.2943,1.2936,1.2923,1.2917,1.2915,1.2912,1.2905,1.2903,1.2935,1.2935,1.2935,0,1.2953,1.2948,1.2958,1.2953,1.2952,1.2965,1.2957,1.2957,1.2957,1.2956,1.2962,1.2952,1.2952,1.294,1.2935,1.2933,1.2931,1.2936,1.2915,1.2912,1.291,1.2904,1.2901,1.2934,1.2934,1.2934,1.2934,0,1.2928,1.2924,1.2917,1.292,1.2919,1.2912,1.2921,1.2918,1.2924,1.2928,1.292,1.2921,1.2917,1.2915,1.2919,1.2904,1.2907,1.2914,1.2923,1.2907,1.29,1.2898,1.2932,1.2933,1.2933,1.2933,0,0,1.2886,1.2899,1.2896,1.2898,1.2904,1.2901,1.2895,1.2894,1.2892,1.2892,1.2887,1.288,1.2888,1.2886,1.2891,1.2885,1.287,1.2893,1.2893,1.2889,1.2854,1.2849,1.2846,1.2874,1.2874,1.2873,1.2854,0,1.2863,1.2855,1.2866,1.2855,1.2852,1.2866,1.2861,1.2864,1.2868,1.2865,1.287,1.2865,1.2875,1.2874,1.287,1.2873,1.2863,1.2874,1.2868,1.2868,1.2868,1.2842,1.2836,1.2818,1.2852,1.2852,1.2851,0,1.2833,1.2836,1.2825,1.2835,1.2834,1.2829,1.2831,1.2829,1.2832,1.2836,1.2836,1.2843,1.2837,1.2848,1.284,1.2848,1.2847,1.2848,1.2848,1.2846,1.2858,1.284,1.2812,1.2809,1.2847,1.2848,1.2848,0,1.2805,1.2805,1.28,1.2802,1.2812,1.2809,1.2812,1.2817,1.2817,1.2817,1.2817,1.2817,1.2816,1.2815,1.2822,1.2829,1.2814,1.2825,1.2816,1.2816,1.281,1.281,1.2781,1.281,1.281,1.2811,1.2811,0,1.2777,1.277,1.2788,1.2784,1.2778,1.279,1.2783,1.2788,1.2792,1.2789,1.2801,1.2798,1.2808,1.2805,1.2811,1.2804,1.2803,1.2806,1.2807,1.2804,1.2804,1.2802,1.2804,1.281,1.281,1.281,1.281,0,1.2742,1.2755,1.275,1.2762,1.2764,1.2759,1.2768,1.2765,1.2772,1.2769,1.2768,1.2778,1.2776,1.2784,1.2783,1.2787,1.2777,1.278,1.2776,1.2777,1.2768,1.2769,1.2736,1.2733,1.2764,1.2764,1.2764,0,1.2723,1.2719,1.2732,1.2732,1.2736,1.2736,1.2737,1.275,1.2751,1.2756,1.2753,1.2753,1.2753,1.275,1.2756,1.2756,1.2759,1.2748,1.2759,1.2757,1.2759,1.2759,1.2759,1.2745,1.2745,1.2744,1.2744,0,1.2688,1.2696,1.2698,1.2703,1.2705,1.2708,1.2713,1.2712,1.2726,1.2726,1.2726,1.2727,1.2728,1.2728,1.273,1.2732,1.274,1.2741,1.2739,1.2736,1.2734,1.2735,1.277,1.2741,1.2741,1.2742,1.2742,1.2742,1.2661,1.2659,1.2669,1.2671,1.2677,1.2682,1.268,1.2689,1.269,1.2693,1.2701,1.27,1.2705,1.2709,1.2711,1.271,1.2715,1.2712,1.2711,1.271,1.2709,1.2735,1.271,1.2711,1.2711,1.2711,1.2711,0,1.2627,1.2635,1.2637,1.2645,1.2648,1.2659,1.2665,1.2666,1.2666,1.2671,1.2673,1.2674,1.2675,1.2683,1.2684,1.2682,1.2686,1.2682,1.2682,1.2683,1.2704,1.2706,1.2679,1.2679,1.2679,1.2679,1.2679,1.2679,1.2609,1.2607,1.2615,1.2616,1.2624,1.2625,1.2628,1.2632,1.2638,1.2639,1.2641,1.2647,1.2654,1.2657,1.2658,1.2661,1.266,1.2655,1.2658,1.2678,1.2681,1.2684,1.2685,1.2655,1.2655,1.2637,1.2637,1.2637]}]]